Location: Newark
(43.6317°N, 70.2728°W)
Time: 10:53:20
(UTC+00:00)

ISS - Visible Passes

Search period start: 19 September 2019 00:00
Search period end: 29 September 2019 00:00
Orbit: 411 x 421 km, 51.6° (Epoch: 19 September)

Date Brightness Start Highest point End Pass type
(mag) Time Alt. Az. Time Alt. Az. Time Alt. Az.
19 Sep -2.4 00:01:31 10° SSW 00:03:48 23° SSE 00:03:48 23° SSE visible
19 Sep -1.9 23:14:05 10° SSE 23:15:58 14° SE 23:17:52 10° E visible
20 Sep -2.4 00:49:00 10° WSW 00:51:05 36° WSW 00:51:05 36° WSW visible
21 Sep -3.8 00:00:36 10° SW 00:03:53 64° SE 00:05:10 33° ENE visible
21 Sep -0.4 01:37:52 10° W 01:38:06 11° WNW 01:38:06 11° WNW visible
21 Sep -3.1 23:12:24 10° SSW 23:15:30 37° SE 23:18:35 10° ENE visible
22 Sep -2.3 00:49:06 10° W 00:51:58 36° NW 00:51:58 36° NW visible
23 Sep -3.1 00:00:25 10° WSW 00:03:40 53° NNW 00:05:40 21° NE visible
23 Sep -0.3 01:38:17 10° WNW 01:38:35 11° WNW 01:38:35 11° WNW visible
23 Sep -3.7 23:11:50 10° WSW 23:15:10 84° NNW 23:18:30 10° ENE visible
24 Sep -1.7 00:49:28 10° WNW 00:52:09 24° NNW 00:52:09 24° NNW visible
25 Sep -2.1 00:00:38 10° W 00:03:36 29° NNW 00:05:36 16° NE visible
25 Sep -0.1 01:38:30 10° NW 01:38:30 10° NW 01:38:30 10° NW visible
25 Sep -2.6 23:11:49 10° W 23:14:59 39° NNW 23:18:08 10° NE visible
26 Sep -1.4 00:49:46 10° NW 00:51:54 20° NNW 00:51:54 20° NNW visible
27 Sep -1.7 00:00:57 10° WNW 00:03:37 22° N 00:05:14 16° NNE visible
27 Sep -1.9 23:12:05 10° WNW 23:14:54 25° NNW 23:17:43 10° NE visible
28 Sep -1.3 00:49:46 10° NW 00:51:25 18° NNW 00:51:25 18° NNW visible
